Location: Danville Conservation Area
(38.8674°N, 91.5143°W)
Time: 11:16:52
(UTC-06:00)

ISS - Pass Details

Date: 08 December 2021
Orbit: 413 x 422 km, 51.6° (Epoch: 19 January)

Event Time Altitude Azimuth Distance (km) Brightness Sun altitude
Rises 17:05:51 0° 311° (NW) 2,381 0.4 -4.6°
Reaches altitude 10° 17:08:00 10° 315° (NW) 1,512 -0.7 -5.0°
Maximum altitude 17:11:21 58° 36° (NE) 498 -3.7 -5.6°
Drops below altitude 10° 17:14:40 10° 116° (ESE) 1,498 -1.3 -6.2°
Enters shadow 17:18:14 -5° 122° (ESE) 2,955 0.2 -6.8°
